FW8597 Weather Reports


Display with metric or nautical units.
time (UTC)temp
F
wind
direction
speed
MPH
gust
MPH
rain 1hr
in
rain 24hr
in
rain mn
in
humidity
%
barometer
mb
20260505034745 60 227 1.0 3.0 0.00 0.00 0.00 58 1015.7
20260505034242 60 191 2.0 2.0 0.00 0.00 0.00 58 1015.7
20260505033738 60 214 1.0 2.0 0.00 0.00 0.00 59 1015.9
20260505033236 60 185 0.0 2.0 0.00 0.00 0.00 58 1015.7
20260505032734 61 180 0.0 1.0 0.00 0.00 0.00 57 1015.7
20260505032230 60 175 1.0 2.0 0.00 0.00 0.00 57 1015.7
20260505031727 60 188 1.0 2.0 0.00 0.00 0.00 57 1015.8
20260505031223 60 170 1.0 2.0 0.00 0.00 0.00 59 1015.5
20260505030721 59 186 1.0 3.0 0.00 0.00 0.00 59 1015.6
20260505030217 58 170 0.0 1.0 0.00 0.00 0.00 60 1015.7
20260505025713 58 174 0.0 1.0 0.00 0.00 0.00 62 1015.5
20260505025211 57 191 0.0 0.0 0.00 0.00 0.00 64 1015.6
20260505024709 57 193 0.0 0.0 0.00 0.00 0.00 64 1015.4
20260505024206 57 168 0.0 0.0 0.00 0.00 0.00 63 1015.6
20260505023703 57 225 0.0 0.0 0.00 0.00 0.00 63 1015.5
20260505023200 58 195 0.0 0.0 0.00 0.00 0.00 61 1015.4
20260505022658 58 241 0.0 0.0 0.00 0.00 0.00 61 1015.4
20260505022154 59 180 0.0 0.0 0.00 0.00 0.00 60 1015.5
20260505021651 60 183 0.0 0.0 0.00 0.00 0.00 58 1015.7
20260505021148 60 178 0.0 0.0 0.00 0.00 0.00 57 1015.4
20260505020644 61 183 0.0 1.0 0.00 0.00 0.00 55 1015.7
20260505020140 61 164 0.0 0.0 0.00 0.00 0.00 55 1015.5
20260505015637 62 176 0.0 0.0 0.00 0.00 0.00 55 1015.4
20260505015133 62 169 0.0 0.0 0.00 0.00 0.00 54 1015.2
20260505014630 63 173 0.0 0.0 0.00 0.00 0.00 51 1015.3
20260505014127 65 165 0.0 1.0 0.00 0.00 0.00 51 1015.2
20260505013625 65 156 1.0 1.0 0.00 0.00 0.00 50 1015.2
20260505013122 66 162 1.0 3.0 0.00 0.00 0.00 49 1015.1
20260505012620 66 196 2.0 3.0 0.00 0.00 0.00 48 1015.1
20260505012117 67 211 2.0 3.0 0.00 0.00 0.00 48 1015.1
20260505011612 67 185 3.0 7.0 0.00 0.00 0.00 47 1015.1
20260505011110 67 174 2.0 6.0 0.00 0.00 0.00 47 1014.9
20260505010605 67 184 1.0 5.0 0.00 0.00 0.00 47 1014.9
20260505005558 66 228 4.0 5.0 0.00 0.00 0.00 47 1015.0
20260505005055 66 205 4.0 5.0 0.00 0.00 0.00 49 1014.7
20260505004552 65 175 2.0 5.0 0.00 0.00 0.00 49 1014.8
20260505004049 64 171 0.0 1.0 0.00 0.00 0.00 49 1014.7
20260505003546 64 189 0.0 0.0 0.00 0.00 0.00 49 1014.6
20260505003043 65 187 0.0 0.0 0.00 0.00 0.00 47 1014.5
20260505002538 66 182 0.0 1.0 0.00 0.00 0.00 46 1014.3
20260505002037 67 183 0.0 0.0 0.00 0.00 0.00 45 1014.5
20260505001534 68 178 0.0 1.0 0.00 0.00 0.00 44 1014.5
20260505001031 68 159 2.0 2.0 0.00 0.00 0.00 43 1014.6
20260505000529 69 159 2.0 2.0 0.00 0.00 0.00 43 1014.4
20260505000026 69 169 2.0 3.0 0.00 0.00 0.00 42 1014.4
20260504235523 69 166 1.0 2.0 0.00 0.00 0.00 42 1014.3
20260504235019 70 172 2.0 3.0 0.00 0.00 0.00 41 1014.4
20260504234516 70 159 2.0 2.0 0.00 0.00 0.00 41 1014.5
20260504234013 71 187 3.0 5.0 0.00 0.00 0.00 40 1014.1
20260504233509 71 203 2.0 3.0 0.00 0.00 0.00 41 1014.1
20260504233006 71 202 3.0 3.0 0.00 0.00 0.00 40 1014.3
20260504232503 71 216 2.0 3.0 0.00 0.00 0.00 39 1014.0
20260504232001 72 171 3.0 6.0 0.00 0.00 0.00 38 1014.1
20260504231456 72 179 2.0 5.0 0.00 0.00 0.00 38 1014.2
20260504230953 73 206 4.0 8.0 0.00 0.00 0.00 37 1014.2
20260504230449 73 187 3.0 8.0 0.00 0.00 0.00 36 1014.0
20260504225949 73 182 3.0 5.0 0.00 0.00 0.00 36 1014.0
20260504225445 74 199 3.0 5.0 0.00 0.00 0.00 36 1014.0
20260504224942 74 192 3.0 7.0 0.00 0.00 0.00 36 1014.0
20260504224438 75 183 5.0 8.0 0.00 0.00 0.00 35 1013.9
20260504223936 75 178 4.0 8.0 0.00 0.00 0.00 35 1014.2
20260504223431 75 158 4.0 5.0 0.00 0.00 0.00 35 1014.1
20260504222927 74 206 4.0 7.0 0.00 0.00 0.00 34 1014.0
20260504222425 74 202 4.0 8.0 0.00 0.00 0.00 34 1014.0
20260504221923 74 183 2.0 8.0 0.00 0.00 0.00 34 1014.1
20260504221419 74 220 5.0 9.0 0.00 0.00 0.00 34 1014.2
20260504220916 74 206 4.0 9.0 0.00 0.00 0.00 34 1014.0
20260504220413 75 203 4.0 9.0 0.00 0.00 0.00 34 1014.1
20260504215910 75 198 4.0 8.0 0.00 0.00 0.00 34 1014.2
20260504215407 74 209 6.0 8.0 0.00 0.00 0.00 33 1014.1
20260504214903 75 223 4.0 8.0 0.00 0.00 0.00 34 1014.1
20260504214400 75 189 7.0 8.0 0.00 0.00 0.00 34 1014.0
20260504213857 75 187 5.0 7.0 0.00 0.00 0.00 34 1014.0
20260504213352 76 205 6.0 9.0 0.00 0.00 0.00 33 1014.0
20260504212850 76 215 6.0 8.0 0.00 0.00 0.00 32 1014.1
20260504212346 77 197 3.0 6.0 0.00 0.00 0.00 33 1014.1
20260504211844 76 228 6.0 13.0 0.00 0.00 0.00 33 1014.2
20260504211340 77 166 4.0 6.0 0.00 0.00 0.00 32 1014.0
20260504210837 77 171 4.0 8.0 0.00 0.00 0.00 35 1014.1
20260504210334 77 151 6.0 13.0 0.00 0.00 0.00 34 1014.3
20260504205831 77 156 5.0 7.0 0.00 0.00 0.00 35 1014.1
20260504205329 76 146 5.0 9.0 0.00 0.00 0.00 34 1014.2
20260504204827 77 211 5.0 8.0 0.00 0.00 0.00 33 1014.2
20260504204325 78 210 5.0 7.0 0.00 0.00 0.00 32 1014.2
20260504203824 78 211 9.0 10.0 0.00 0.00 0.00 33 1014.3
20260504203321 78 193 5.0 9.0 0.00 0.00 0.00 32 1014.3
20260504202816 78 298 2.0 7.0 0.00 0.00 0.00 31 1014.3
20260504202314 79 264 5.0 11.0 0.00 0.00 0.00 33 1014.4
20260504201810 78 151 1.0 5.0 0.00 0.00 0.00 32 1014.6
20260504201308 78 213 1.0 9.0 0.00 0.00 0.00 32 1014.5
20260504200805 78 223 5.0 8.0 0.00 0.00 0.00 32 1014.5
20260504200301 78 170 8.0 11.0 0.00 0.00 0.00 32 1014.8
20260504195758 78 159 7.0 8.0 0.00 0.00 0.00 30 1014.8
20260504195254 78 298 2.0 7.0 0.00 0.00 0.00 30 1015.0
20260504194751 78 214 2.0 9.0 0.00 0.00 0.00 30 1014.8
20260504194247 78 196 6.0 8.0 0.00 0.00 0.00 31 1014.9
20260504193743 77 232 3.0 6.0 0.00 0.00 0.00 31 1015.0
20260504193241 77 209 3.0 3.0 0.00 0.00 0.00 30 1014.9
20260504192739 77 222 4.0 8.0 0.00 0.00 0.00 33 1015.2
20260504192237 77 130 8.0 11.0 0.00 0.00 0.00 32 1015.1
20260504191735 77 276 5.0 7.0 0.00 0.00 0.00 31 1015.5
20260504191232 77 227 7.0 9.0 0.00 0.00 0.00 30 1015.2
20260504190727 77 211 3.0 5.0 0.00 0.00 0.00 32 1015.4
20260504190224 77 211 7.0 8.0 0.00 0.00 0.00 31 1015.5
20260504185720 77 184 4.0 9.0 0.00 0.00 0.00 34 1015.3
20260504185217 77 196 7.0 9.0 0.00 0.00 0.00 32 1015.4
20260504184713 75 179 3.0 7.0 0.00 0.00 0.00 33 1015.4
20260504184209 75 170 3.0 7.0 0.00 0.00 0.00 33 1015.6
20260504183705 75 166 3.0 8.0 0.00 0.00 0.00 35 1015.6
20260504183202 75 178 6.0 10.0 0.00 0.00 0.00 32 1015.7
20260504182700 75 264 4.0 8.0 0.00 0.00 0.00 34 1015.7
20260504182157 75 161 5.0 10.0 0.00 0.00 0.00 33 1015.8
20260504181655 74 232 3.0 7.0 0.00 0.00 0.00 32 1015.8
20260504181152 75 164 7.0 9.0 0.00 0.00 0.00 33 1015.8
20260504180651 74 113 4.0 9.0 0.00 0.00 0.00 32 1016.1
20260504180150 74 157 3.0 8.0 0.00 0.00 0.00 33 1015.9
20260504175647 74 144 4.0 6.0 0.00 0.00 0.00 33 1016.1
20260504175143 75 166 3.0 8.0 0.00 0.00 0.00 32 1016.1
20260504174641 75 166 7.0 11.0 0.00 0.00 0.00 32 1016.2
20260504174137 75 192 7.0 8.0 0.00 0.00 0.00 31 1016.2
20260504173635 75 111 3.0 6.0 0.00 0.00 0.00 31 1016.2
20260504173132 75 216 0.0 2.0 0.00 0.00 0.00 30 1016.6
20260504172629 74 248 3.0 5.0 0.00 0.00 0.00 31 1016.2
20260504172125 73 196 6.0 8.0 0.00 0.00 0.00 32 1016.1
20260504171621 73 148 5.0 8.0 0.00 0.00 0.00 31 1016.7
20260504171119 74 166 7.0 8.0 0.00 0.00 0.00 32 1016.3
20260504170615 74 163 0.0 8.0 0.00 0.00 0.00 32 1016.9
20260504170113 74 230 3.0 5.0 0.00 0.00 0.00 32 1016.9
20260504150958 69 179 0.0 6.0 0.00 0.00 0.00 40 1018.1
20260504150455 69 262 3.0 6.0 0.00 0.00 0.00 38 1017.9
20260504140922 65 222 2.0 3.0 0.00 0.00 0.00 50 1017.8
20260504140418 65 325 2.0 3.0 0.00 0.00 0.00 53 1017.9
20260504130343 55 273 3.0 3.0 0.00 0.00 0.00 76 1017.9
20260504120306 47 257 1.0 2.0 0.00 0.00 0.00 89 1017.6
20260504110230 39 275 0.0 0.0 0.00 0.00 0.00 89 1017.4
20260504100154 40 12 0.0 0.0 0.00 0.00 0.00 88 1017.0
20260504090116 40 124 0.0 0.0 0.00 0.00 0.00 87 1017.4
20260504081547 43 173 0.0 0.0 0.00 0.00 0.00 87 1016.9
20260504081042 43 197 0.0 0.0 0.00 0.00 0.00 87 1016.8
20260504080539 42 174 0.0 0.0 0.00 0.00 0.00 87 1016.7
20260504050346 49 346 1.0 1.0 0.00 0.00 0.00 77 1017.5
20260504045843 49 354 1.0 1.0 0.00 0.00 0.00 76 1017.4
20260504045338 49 253 1.0 2.0 0.00 0.00 0.00 77 1017.3
20260504044835 49 219 0.0 0.0 0.00 0.00 0.00 78 1017.0
20260504044332 48 183 1.0 3.0 0.00 0.00 0.00 80 1017.0
20260504043830 46 165 0.0 0.0 0.00 0.00 0.00 80 1017.0
20260504043326 46 225 0.0 0.0 0.00 0.00 0.00 79 1016.9
20260504042824 46 168 0.0 0.0 0.00 0.00 0.00 79 1017.0
20260504042320 46 199 0.0 0.0 0.00 0.00 0.00 78 1017.0
20260504041816 47 185 0.0 0.0 0.00 0.00 0.00 78 1016.8
20260504041313 47 185 0.0 0.0 0.00 0.00 0.00 77 1017.1
20260504040809 48 189 0.0 0.0 0.00 0.00 0.00 77 1017.3
20260504040307 48 218 0.0 0.0 0.00 0.00 0.00 76 1017.4
20260504035802 48 215 0.0 0.0 0.00 0.00 0.00 76 1017.2
20260504035300 48 173 0.0 0.0 0.00 0.00 0.00 76 1017.2